Volver al catálogo

COSMOS 252 DEB *

ActivoUNKNOWN
NORAD 3938·DEBRIS·🇷🇺 Russia

Lanzado Nov 1, 1968 desde Baikonur Cosmodrome

Loading…

Próximos Pases (próximas 24 horas)

TLE

ActualizadoSource: Space-Track

Época: Sep 14, 2026, 03:56 UTC

1 03938U 68097BS  26257.16439230  .00000529  00000-0  38269-3 0  9990
2 03938  63.0297 307.9772 1067692 325.0419  56.0804 12.56443302582112

Sigue COSMOS 252 DEB * en tiempo real con AllMySat

Download on the App Store